Blountville, TN

10:19 AM EST on December 05, 2016 (GMT -0500)
Tri-Cities Regional Tennessee / Virginia

Weather History for KTRI - August, 2013

Change the Weather History Date:

Tuesday, August 6, 2013

  Actual Average Record
Temperature  
Mean Temperature 75 °F 74 °F  
Max Temperature 85 °F 85 °F 94 °F (1955)
Min Temperature 64 °F 63 °F 51 °F (1950)
Degree Days  
Heating Degree Days 0 0  
Month to date heating degree days 0 0  
Since 1 June heating degree days 0 11  
Since 1 July heating degree days 0 0  
Cooling Degree Days 10 9  
Month to date cooling degree days 55 56  
Year to date cooling degree days 645 634  
Since 1 June cooling degree days 573 561  
Growing Degree Days 24 (Base 50)    
Moisture  
Dew Point 64 °F    
Average Humidity 72    
Maximum Humidity 93    
Minimum Humidity 51    
Precipitation  
Precipitation 0.00 in 0.13 in 1.18 in (1990)
Month to date precipitation 0.18 0.78  
Year to date precipitation 40.35 26.76  
Snow  
Snow 0.00 in 0.00 in - ()
Month to date snowfall 0.0 0.0  
Since 1 June snowfall 0.0 0.0  
Since 1 July snowfall 0.0 0.0  
Snow Depth 0.00 in    
Sea Level Pressure  
Sea Level Pressure 29.96 in    
Wind  
Wind Speed 2 mph (South)    
Max Wind Speed 8 mph    
Max Gust Speed 17 mph    
Visibility 10 miles    
Events      
T = Trace of Precipitation, MM = Missing Value Source: NWS Daily Summary

Daily Weather History Graph

Daily Weather History Graph

Search for Another Location

Airport or City:

Trip Planner

Search our weather history database for the weather conditions in past years. The results will help you decide how hot, cold, wet, or windy it might be!

Date:

Astronomy

Aug. 06, 2013 Rise Set
Actual Time 6:40 AM EDT 8:30 PM EDT
Civil Twilight 6:12 AM EDT 8:58 PM EDT
Nautical Twilight 5:38 AM EDT 9:32 PM EDT
Astronomical Twilight 5:01 AM EDT 10:08 PM EDT
Moon 6:28 AM EDT (8/6) 8:06 PM EDT (8/6)
Length of Visible Light 14h 46m
Length of Day
13h 50m
Waning Crescent, 0% of the Moon is Illuminated
Aug 6
Waning Crescent
Aug 6
New
Aug 14
First Quarter
Aug 20
Full
Aug 28
Last Quarter

Hourly Weather History & Observations

Time (EDT) Temp. Heat Index Dew Point Humidity Pressure Visibility Wind Dir Wind Speed Gust Speed Precip Events Conditions
12:53 AM 66.0 °F - 62.1 °F 87% 29.96 in 10.0 mi Calm Calm - N/A   Scattered Clouds
1:53 AM 66.9 °F - 62.1 °F 84% 29.95 in 10.0 mi Calm Calm - N/A   Overcast
2:53 AM 66.0 °F - 63.0 °F 90% 29.94 in 10.0 mi Calm Calm - N/A   Overcast
3:53 AM 64.9 °F - 62.1 °F 90% 29.93 in 9.0 mi Calm Calm - N/A   Scattered Clouds
4:53 AM 64.9 °F - 62.1 °F 90% 29.94 in 8.0 mi Calm Calm - N/A   Overcast
5:53 AM 66.0 °F - 63.0 °F 90% 29.94 in 10.0 mi Calm Calm - N/A   Overcast
6:53 AM 66.0 °F - 63.0 °F 90% 29.96 in 8.0 mi Calm Calm - N/A   Overcast
7:53 AM 66.9 °F - 63.0 °F 87% 29.99 in 9.0 mi Calm Calm - N/A   Mostly Cloudy
8:53 AM 70.0 °F - 63.0 °F 78% 29.99 in 10.0 mi Calm Calm - N/A   Overcast
9:53 AM 72.0 °F - 63.0 °F 73% 30.00 in 10.0 mi Calm Calm - N/A   Overcast
10:53 AM 73.9 °F - 63.0 °F 68% 30.01 in 10.0 mi SSW 4.6 mph - N/A   Overcast
11:53 AM 77.0 °F - 63.0 °F 62% 30.00 in 10.0 mi Calm Calm - N/A   Mostly Cloudy
12:53 PM 79.0 °F - 63.0 °F 58% 29.99 in 10.0 mi Calm Calm - N/A   Mostly Cloudy
1:53 PM 82.0 °F 83.4 °F 64.0 °F 54% 29.98 in 10.0 mi Variable 6.9 mph - N/A   Mostly Cloudy
2:53 PM 82.0 °F 83.1 °F 63.0 °F 52% 29.96 in 10.0 mi Variable 4.6 mph - N/A   Mostly Cloudy
3:53 PM 82.9 °F 84.0 °F 63.0 °F 51% 29.95 in 10.0 mi SSW 4.6 mph - N/A   Mostly Cloudy
4:53 PM 84.0 °F 85.4 °F 64.0 °F 51% 29.94 in 10.0 mi Calm Calm - N/A   Mostly Cloudy
5:53 PM 82.9 °F 84.4 °F 64.0 °F 53% 29.95 in 10.0 mi Variable 4.6 mph - N/A   Overcast
6:53 PM 82.0 °F 83.4 °F 64.0 °F 54% 29.95 in 10.0 mi Calm Calm - N/A   Mostly Cloudy
7:53 PM 81.0 °F 82.5 °F 64.0 °F 56% 29.94 in 10.0 mi Calm Calm - N/A   Mostly Cloudy
8:53 PM 75.0 °F - 68.0 °F 79% 29.95 in 10.0 mi Calm Calm - N/A   Mostly Cloudy
9:53 PM 73.9 °F - 68.0 °F 82% 29.96 in 10.0 mi Calm Calm - N/A   Mostly Cloudy
10:53 PM 73.0 °F - 69.1 °F 87% 29.96 in 10.0 mi North 3.5 mph - N/A   Mostly Cloudy
11:53 PM 75.0 °F - 66.9 °F 76% 29.97 in 10.0 mi SE 5.8 mph - N/A   Mostly Cloudy